CW4797 Weather Reports


Display with metric or nautical units.
time (UTC)temp
F
wind
direction
speed
MPH
gust
MPH
rain 1hr
in
rain 24hr
in
rain mn
in
humidity
%
barometer
mb
20240228183026 51 240 2.0 8.0 0.00 0.00 0.00 1 1002.4
20240228181522 51 240 0.0 7.0 0.00 0.00 0.00 1 1002.9
20240228180021 51 243 1.0 8.0 0.00 0.00 0.00 1 1003.2
20240228174511 50 242 2.0 6.0 0.00 0.00 0.00 1 1003.2
20240228173006 50 253 1.0 8.0 0.00 0.00 0.00 1 1003.6
20240228171502 49 226 0.0 0.0 0.00 0.00 0.00 1 1003.7
20240228170058 49 246 0.0 4.0 0.00 0.00 0.00 1 1003.9
20240228164603 50 259 2.0 5.0 0.00 0.00 0.00 1 1004.2
20240228163050 50 240 1.0 4.0 0.00 0.00 0.00 1 1004.2
20240228161547 50 243 1.0 11.0 0.00 0.00 0.00 1 1004.6
20240228160046 50 238 2.0 8.0 0.00 0.00 0.00 1 1004.7
20240228154536 49 232 2.0 8.0 0.00 0.00 0.00 1 1005.1
20240228153039 49 253 1.0 7.0 0.00 0.00 0.00 1 1005.5
20240228151526 49 252 2.0 8.0 0.00 0.00 0.00 1 1005.4
20240228150021 48 254 3.0 6.0 0.00 0.00 0.00 1 1006.0
20240228144517 48 248 2.0 7.0 0.00 0.00 0.00 1 1006.4
20240228143013 48 240 2.0 7.0 0.00 0.00 0.00 1 1006.7
20240228141508 48 234 2.0 8.0 0.00 0.00 0.00 1 1006.8
20240228140010 48 227 3.0 8.0 0.00 0.00 0.00 1 1007.1
20240228134559 49 206 3.0 9.0 0.00 0.00 0.00 1 1007.2
20240228133056 49 252 2.0 7.0 0.00 0.00 0.00 1 1007.7
20240228131550 49 238 1.0 6.0 0.00 0.00 0.00 1 1008.0
20240228130045 0 0.0 0.0 0.00 0.00 0.00 1008.4
20240228124545 0 0.0 0.0 0.00 0.00 0.00 1008.7
20240228123037 0 0.0 0.0 0.00 0.00 0.00 1008.9
20240228121532 0 0.0 0.0 0.00 0.00 0.00 1009.0
20240228120032 48 242 4.0 9.0 0.00 0.00 0.00 1 1009.1
20240228114624 49 254 2.0 9.0 0.00 0.00 0.00 1 1009.2
20240228113020 49 243 1.0 5.0 0.00 0.00 0.00 1 1009.1
20240228111515 49 240 1.0 5.0 0.00 0.00 0.00 1 1009.4
20240228110010 49 242 2.0 7.0 0.00 0.00 0.00 1 1009.6
20240228104514 49 266 1.0 6.0 0.00 0.00 0.00 1 1009.6
20240228103002 48 302 2.0 7.0 0.00 0.00 0.00 1 1009.8
20240228101558 48 246 0.0 7.0 0.00 0.00 0.00 1 1010.0
20240228100056 48 275 1.0 5.0 0.00 0.00 0.00 1 1010.1
20240228094552 48 238 2.0 5.0 0.00 0.00 0.00 1 1010.1
20240228093046 48 269 1.0 7.0 0.00 0.00 0.00 1 1010.2
20240228091542 48 239 1.0 4.0 0.00 0.00 0.00 1 1009.8
20240228090037 48 237 1.0 8.0 0.00 0.00 0.00 1 1010.4
20240228084533 48 245 2.0 9.0 0.00 0.00 0.00 1 1010.5
20240228083028 47 258 3.0 8.0 0.00 0.00 0.00 1 1010.7
20240228081527 47 221 3.0 8.0 0.00 0.00 0.00 1 1010.8
20240228080019 46 242 0.0 8.0 0.00 0.00 0.00 1 1010.8
20240228074515 45 248 0.0 8.0 0.00 0.00 0.00 1 1011.2
20240228073009 43 241 0.0 3.0 0.00 0.00 0.00 1 1011.3
20240228071503 42 240 0.0 3.0 0.00 0.00 0.00 1 1011.4
20240228070118 40 238 0.0 3.0 0.00 0.00 0.00 1 1011.5
20240228064557 39 278 1.0 6.0 0.00 0.00 0.00 1 1011.7
20240228063051 37 252 0.0 3.0 0.00 0.00 0.00 1 1011.8
20240228061552 36 234 0.0 1.0 0.00 0.00 0.00 1 1012.1
20240228060046 36 142 0.0 0.0 0.00 0.00 0.00 1 1012.5
20240228054543 36 142 0.0 1.0 0.00 0.00 0.00 1 1012.8
20240228053035 36 169 0.0 1.0 0.00 0.00 0.00 1 1013.3
20240228051533 36 167 0.0 0.0 0.00 0.00 0.00 1 1013.6
20240228050024 36 294 0.0 0.0 0.00 0.00 0.00 1 1013.7
20240228044520 35 294 0.0 0.0 0.00 0.00 0.00 1 1014.0
20240228043017 35 294 0.0 0.0 0.00 0.00 0.00 1 1014.3
20240228041510 35 294 0.0 0.0 0.00 0.00 0.00 1 1014.6
20240228040006 35 294 0.0 0.0 0.00 0.00 0.00 1 1014.6
20240228034505 35 294 0.0 0.0 0.00 0.00 0.00 1 1015.0
20240228033058 35 294 0.0 0.0 0.00 0.00 0.00 1 1015.2
20240228031553 36 294 0.0 0.0 0.00 0.00 0.00 1 1015.3
20240228030048 36 294 0.0 0.0 0.00 0.00 0.00 1 1015.1
20240228024543 37 294 0.0 0.0 0.00 0.00 0.00 1 1015.2
20240228023040 36 274 0.0 2.0 0.00 0.00 0.00 1 1015.4
20240228021547 36 161 0.0 0.0 0.00 0.00 0.00 1 1015.4
20240228020049 37 161 0.0 0.0 0.00 0.00 0.00 1 1015.9
20240228014531 37 161 0.0 0.0 0.00 0.00 0.00 1 1015.9
20240228013028 37 161 0.0 0.0 0.00 0.00 0.00 1 1015.9
20240228011522 37 161 0.0 0.0 0.00 0.00 0.00 1 1015.6
20240228010024 37 161 0.0 0.0 0.00 0.00 0.00 1 1015.6
20240228004512 37 161 0.0 0.0 0.00 0.00 0.00 1 1015.6
20240228003007 37 161 0.0 0.0 0.00 0.00 0.00 1 1015.7
20240228001510 37 161 0.0 3.0 0.00 0.00 0.00 1 1015.8
20240228000059 37 194 0.0 0.0 0.00 0.00 0.00 1 1016.0
20240227234554 37 194 0.0 2.0 0.00 0.00 0.00 1 1016.1
20240227233051 37 240 0.0 0.0 0.00 0.00 0.00 1 1016.2
20240227231547 37 240 0.0 1.0 0.00 0.00 0.00 1 1016.3
20240227230046 38 240 0.0 2.0 0.00 0.00 0.00 1 1016.4
20240227224536 38 240 0.0 0.0 0.00 0.00 0.00 1 1016.3
20240227223035 39 147 0.0 1.0 0.00 0.00 0.00 1 1016.4
20240227221540 40 142 0.0 1.0 0.00 0.00 0.00 18 1016.3
20240227220035 42 140 0.0 1.0 0.00 0.00 0.00 31 1016.4
20240227214526 42 237 0.0 3.0 0.00 0.00 0.00 40 1016.7
20240227213014 43 260 0.0 1.0 0.00 0.00 0.00 45 1016.7
20240227211514 44 221 0.0 1.0 0.00 0.00 0.00 50 1016.9
20240227210005 44 192 0.0 2.0 0.00 0.00 0.00 52 1016.9
20240227204601 45 234 1.0 6.0 0.00 0.00 0.00 54 1016.9
20240227203058 45 293 0.0 4.0 0.00 0.00 0.00 57 1017.1
20240227201552 46 255 0.0 7.0 0.00 0.00 0.00 59 1017.1
20240227200048 47 232 2.0 9.0 0.00 0.00 0.00 61 1017.1
20240227194543 49 188 0.0 2.0 0.00 0.00 0.00 61 1017.1
20240227193039 52 254 1.0 8.0 0.00 0.00 0.00 58 1017.0
20240227191536 53 246 0.0 7.0 0.00 0.00 0.00 52 1016.8
20240227190033 54 217 0.0 4.0 0.00 0.00 0.00 52 1017.2
20240227184528 54 111 0.0 3.0 0.00 0.00 0.00 53 1017.3